Flag for Taiwan Weather past 2 weeks in Kaohsiung, Taiwan

Now
75 °F

Passing clouds.


Feels Like: 78 °F
Forecast: 62 / 77 °F
Wind: 5 mph from North

Location: Kaohsiung International Airport

Current Time: Jan 25, 2015 at 6:16:43 PM

Latest Report: Jan 25, 2015 at 5:30 PM


Visibility: N/A

Pressure: 30.07 "Hg

Humidity: 54%

Dew point: 57 °F

Location of KaohsiungLocation

Historic Weather in Kaohsiung — Graph

°F

Kaohsiung temperature yesterday

Maximum temperature yesterday: 77 °F (at 1:00 PM)
Minimum temperature yesterday: 52 °F (at 6:30 AM)
Average temperature yesterday: 66 °F

Past Weeks' High & Low Weather Summary

 TemperatureHumidityPressure
High81 °F (Jan 25, 12:30 PM)94% (Jan 17, 3:51 AM)30.24 "Hg (Jan 17, 3:51 AM)
Low52 °F (Jan 24, 6:30 AM)19% (Jan 22, 4:00 PM)29.95 "Hg (Jan 13, 2:00 PM)
Average68 °F65%30.11 "Hg
* Reported Jan 10 5:00 PM — Jan 25 5:00 PM, Kaohsiung, Weather by CustomWeather, © 2014

Note: Actual official high and low records may vary slightly from our data, if they occured in-between our weather recording intervals... More about our weather records

Advertising

Kaohsiung weather history for previous 24 hours

 ConditionsComfort  
Time TempWeatherWind HumidityBarometerVisibility
5:00 PM
Jan 25
77 °FPassing clouds.5 mph54%30.04 "HgN/A
4:30 PM79 °FPassing clouds.7 mph51%30.04 "HgN/A
4:00 PM79 °FPassing clouds.7 mph51%30.04 "HgN/A
3:30 PM79 °FPassing clouds.8 mph51%30.04 "HgN/A
3:00 PM79 °FPassing clouds.7 mph51%30.04 "Hg6 mi
2:48 PM77 °FPassing clouds.7 mph51%30.04 "Hg6 mi
2:30 PM79 °FPassing clouds.8 mph45%30.07 "Hg6 mi
2:00 PM79 °FPassing clouds.10 mph42%30.07 "Hg4 mi
1:30 PM77 °FHaze.13 mph47%30.07 "Hg3 mi
1:00 PM79 °FHaze.12 mph45%30.07 "Hg3 mi
12:30 PM81 °FPassing clouds.3 mph39%30.09 "Hg4 mi
12:00 PM79 °FPassing clouds.8 mph42%30.09 "Hg4 mi
11:30 AM79 °FPassing clouds.8 mph37%30.09 "Hg6 mi
10:30 AM77 °FPassing clouds.7 mph39%30.12 "HgN/A
10:00 AM77 °FScattered clouds.7 mph36%30.12 "Hg5 mi
9:30 AM75 °FPassing clouds.7 mph31%30.12 "Hg4 mi
9:00 AM73 °FPassing clouds.6 mph36%30.12 "Hg4 mi
8:30 AM72 °FPassing clouds.5 mph41%30.12 "Hg4 mi
8:00 AM70 °FScattered clouds.9 mph43%30.12 "Hg3 mi
7:30 AM64 °FBroken clouds.8 mph60%30.12 "Hg3 mi
7:00 AM63 °FBroken clouds.5 mph73%30.12 "Hg2 mi
6:30 AM63 °FPartly cloudy.5 mph73%30.12 "Hg3 mi
6:00 AM63 °FPartly cloudy.3 mph73%30.12 "Hg3 mi
5:00 AM63 °FPartly cloudy.5 mph73%30.12 "Hg3 mi
4:00 AM63 °FPartly cloudy.3 mph68%30.09 "Hg3 mi
3:00 AM63 °FPartly cloudy.6 mph68%30.12 "Hg3 mi
2:00 AM64 °FPartly cloudy.5 mph64%30.12 "Hg3 mi
1:00 AM64 °FPartly cloudy.3 mph60%30.12 "Hg3 mi
12:00 AM66 °FPartly cloudy.3 mph56%30.12 "Hg3 mi
11:30 PM
Jan 24
66 °FPartly cloudy.5 mph56%30.12 "Hg3 mi
11:00 PM66 °FPassing clouds.3 mph56%30.12 "Hg4 mi
10:30 PM64 °FPassing clouds.3 mph60%30.15 "Hg4 mi
10:00 PM66 °FPassing clouds.2 mph52%30.15 "Hg4 mi
9:30 PM66 °FPassing clouds.3 mph49%30.15 "Hg4 mi
9:00 PM66 °FPassing clouds.3 mph49%30.15 "Hg5 mi
8:30 PM68 °FPassing clouds.5 mph43%30.15 "Hg6 mi
8:00 PM68 °FPassing clouds.6 mph43%30.15 "Hg6 mi
7:30 PM68 °FPassing clouds.5 mph49%30.12 "Hg6 mi
7:00 PM68 °FPassing clouds.3 mph46%30.12 "Hg6 mi
6:30 PM68 °FPassing clouds.6 mph46%30.12 "HgN/A
6:00 PM68 °FPassing clouds.5 mph46%30.12 "Hg5 mi
Weather by CustomWeather, © 2014

See weather overviewHow to use our weather pages